HAZ3804 ZBYN-ZGSZ

Flight info

Callsign HAZ3804
Flight time 2h 27m
Altitude 36100
Route BISA5W BISAL W175 BIVAT W210 PADNO B208 CGO W129 KAMDA W128 DUDBI W37 OMBEB R473 NOLON W90 POU W7 SAREX SAREX3
Aircraft A346/H-SDE2E3FGHIJ3J4J5M1RWXY/LB1D1

Departure

Time 2026-05-05 15:38
Airport Taiyuan Wusu International Airport (ZBYN)

Arrival

Time 2026-05-05 18:06
Airport Shenzhen Bao'an International Airport (ZGSZ)
Time Latitude Longitude Altitude Speed Heading
2026-05-05 15:25 37.75082 112.63069 2598 ft 0 kts 352°
2026-05-05 15:29 37.75069 112.63071 2598 ft 2 kts 352°
2026-05-05 15:30 37.75054 112.63074 2598 ft 2 kts 352°
2026-05-05 15:30 37.75039 112.63077 2598 ft 2 kts 354°
2026-05-05 15:30 37.75025 112.63075 2598 ft 2 kts 17°
2026-05-05 15:30 37.75011 112.63068 2598 ft 2 kts 35°
2026-05-05 15:31 37.75001 112.63055 2598 ft 2 kts 52°
2026-05-05 15:31 37.74993 112.63039 2598 ft 2 kts 70°
2026-05-05 15:31 37.74990 112.63021 2598 ft 2 kts 88°
2026-05-05 15:31 37.74991 112.63003 2598 ft 2 kts 105°
2026-05-05 15:32 37.74996 112.62987 2598 ft 0 kts 121°
2026-05-05 15:32 37.74999 112.62982 2598 ft 0 kts 123°
2026-05-05 15:32 37.74999 112.62983 2598 ft 0 kts 123°
2026-05-05 15:33 37.74992 112.62994 2598 ft 4 kts 124°
2026-05-05 15:34 37.74938 112.63026 2598 ft 11 kts 185°
2026-05-05 15:34 37.74869 112.62976 2598 ft 9 kts 237°
2026-05-05 15:34 37.74877 112.62891 2598 ft 13 kts 295°
2026-05-05 15:34 37.74946 112.62769 2598 ft 18 kts 308°
2026-05-05 15:35 37.75025 112.62637 2598 ft 18 kts 306°
2026-05-05 15:35 37.75043 112.62530 2598 ft 11 kts 219°
2026-05-05 15:35 37.74960 112.62537 2598 ft 13 kts 156°
2026-05-05 15:35 37.74868 112.62599 2598 ft 17 kts 146°
2026-05-05 15:36 37.74781 112.62699 2598 ft 14 kts 132°
2026-05-05 15:36 37.74709 112.62711 2598 ft 11 kts 204°
2026-05-05 15:36 37.74635 112.62649 2598 ft 13 kts 217°
2026-05-05 15:36 37.74552 112.62569 2598 ft 16 kts 216°
2026-05-05 15:37 37.74458 112.62479 2598 ft 17 kts 217°
2026-05-05 15:37 37.74390 112.62441 2598 ft 9 kts 163°
2026-05-05 15:37 37.74329 112.62512 2598 ft 25 kts 126°
2026-05-05 15:37 37.74078 112.62935 2598 ft 93 kts 127°
2026-05-05 15:38 37.73557 112.63810 2599 ft 151 kts 127°
2026-05-05 15:38 37.72847 112.65003 2718 ft 184 kts 128°
2026-05-05 15:38 37.72078 112.66292 3197 ft 187 kts 128°
2026-05-05 15:38 37.71297 112.67594 3775 ft 191 kts 129°
2026-05-05 15:39 37.70506 112.68918 4369 ft 191 kts 130°
2026-05-05 15:39 37.69677 112.70300 4683 ft 204 kts 130°
2026-05-05 15:39 37.68786 112.71778 4961 ft 219 kts 131°
2026-05-05 15:39 37.67835 112.73355 5242 ft 235 kts 131°
2026-05-05 15:40 37.66811 112.75054 5492 ft 255 kts 131°
2026-05-05 15:40 37.65696 112.76907 5852 ft 273 kts 131°
2026-05-05 15:40 37.64528 112.78858 6435 ft 281 kts 132°
2026-05-05 15:40 37.63342 112.80827 7143 ft 285 kts 131°
2026-05-05 15:41 37.62141 112.82816 7821 ft 291 kts 130°
2026-05-05 15:41 37.60920 112.84843 8464 ft 297 kts 129°
2026-05-05 15:41 37.59667 112.86921 9135 ft 302 kts 129°
2026-05-05 15:41 37.58499 112.89177 9748 ft 311 kts 111°
2026-05-05 15:42 37.58118 112.91829 10391 ft 316 kts 85°
2026-05-05 15:42 37.58685 112.94534 10832 ft 325 kts 58°
2026-05-05 15:42 37.60148 112.96694 11242 ft 332 kts 34°
2026-05-05 15:42 37.62071 112.98410 11646 ft 346 kts 31°
2026-05-05 15:43 37.64088 113.00192 11967 ft 365 kts 32°
2026-05-05 15:43 37.66208 113.02035 12260 ft 381 kts 27°
2026-05-05 15:43 37.68725 113.03091 12725 ft 384 kts
2026-05-05 15:43 37.71359 113.02916 13569 ft 378 kts 344°
2026-05-05 15:44 37.73749 113.01653 14382 ft 375 kts 326°
2026-05-05 15:44 37.75676 112.99424 15081 ft 377 kts 308°
2026-05-05 15:44 37.77230 112.96758 15781 ft 381 kts 306°
2026-05-05 15:44 37.78809 112.94061 16449 ft 385 kts 306°
2026-05-05 15:45 37.80405 112.91360 17129 ft 389 kts 306°
2026-05-05 15:45 37.82029 112.88614 17808 ft 392 kts 305°
2026-05-05 15:45 37.83296 112.85603 18383 ft 396 kts 289°
2026-05-05 15:45 37.83775 112.82185 18991 ft 402 kts 273°
2026-05-05 15:46 37.83427 112.78637 19582 ft 410 kts 257°
2026-05-05 15:46 37.82258 112.75360 20180 ft 418 kts 242°
2026-05-05 15:46 37.80693 112.72295 20783 ft 421 kts 241°
2026-05-05 15:46 37.79088 112.69129 21324 ft 426 kts 241°
2026-05-05 15:47 37.77494 112.65984 21892 ft 430 kts 239°
2026-05-05 15:47 37.76272 112.63995 22203 ft 436 kts 232°
2026-05-05 15:47 37.73203 112.60603 22889 ft 449 kts 218°
2026-05-05 15:47 37.70468 112.58672 23432 ft 456 kts 210°
2026-05-05 15:48 37.67578 112.56928 24002 ft 459 kts 210°
2026-05-05 15:48 37.64711 112.55228 24526 ft 462 kts 210°
2026-05-05 15:48 37.61769 112.53486 25021 ft 466 kts 210°
2026-05-05 15:48 37.58847 112.51750 25526 ft 468 kts 211°
2026-05-05 15:49 37.55903 112.49993 25988 ft 472 kts 211°
2026-05-05 15:49 37.52927 112.48213 26429 ft 475 kts 211°
2026-05-05 15:49 37.49940 112.46427 26867 ft 479 kts 211°
2026-05-05 15:49 37.46918 112.44620 27302 ft 482 kts 212°
2026-05-05 15:50 37.43899 112.42816 27788 ft 483 kts 211°
2026-05-05 15:50 37.40846 112.40993 28380 ft 482 kts 212°
2026-05-05 15:50 37.37853 112.39212 29019 ft 480 kts 212°
2026-05-05 15:50 37.34862 112.37434 29638 ft 478 kts 212°
2026-05-05 15:51 37.31865 112.35652 30236 ft 476 kts 213°
2026-05-05 15:51 37.28852 112.33855 30794 ft 476 kts 212°
2026-05-05 15:51 37.25870 112.32064 31308 ft 476 kts 212°
2026-05-05 15:51 37.22836 112.30250 31858 ft 475 kts 213°
2026-05-05 15:52 37.19861 112.28477 32388 ft 474 kts 213°
2026-05-05 15:52 37.16873 112.26708 32937 ft 473 kts 213°
2026-05-05 15:52 37.13905 112.24955 33458 ft 472 kts 213°
2026-05-05 15:52 37.10924 112.23189 33945 ft 472 kts 213°
2026-05-05 15:53 37.08015 112.21429 34441 ft 470 kts 214°
2026-05-05 15:53 37.05081 112.19576 34857 ft 471 kts 215°
2026-05-05 15:53 37.02163 112.17711 35234 ft 473 kts 215°
2026-05-05 15:53 36.99238 112.15846 35630 ft 473 kts 216°
2026-05-05 15:54 36.96291 112.13979 35980 ft 475 kts 216°
2026-05-05 15:54 36.90391 112.10259 36023 ft 477 kts 215°
2026-05-05 15:55 36.84443 112.06551 36048 ft 478 kts 215°
2026-05-05 15:55 36.78496 112.02844 36095 ft 479 kts 215°
2026-05-05 15:56 36.72415 111.99348 36141 ft 486 kts 209°
2026-05-05 15:56 36.65822 111.97061 36121 ft 498 kts 198°
2026-05-05 15:57 36.58861 111.96259 36073 ft 510 kts 187°
2026-05-05 15:57 36.51706 111.96861 36033 ft 516 kts 180°
2026-05-05 15:58 36.44553 111.97762 36007 ft 516 kts 180°
2026-05-05 15:58 36.37418 111.98630 35994 ft 516 kts 180°
2026-05-05 15:59 36.30361 111.99460 35986 ft 517 kts 181°
2026-05-05 15:59 36.23255 112.00286 35980 ft 517 kts 180°
2026-05-05 16:00 36.16062 112.01118 35983 ft 518 kts 180°
2026-05-05 16:00 36.08897 112.01950 35995 ft 517 kts 180°
2026-05-05 16:01 36.01757 112.02777 36008 ft 517 kts 180°
2026-05-05 16:01 35.94608 112.03601 36015 ft 518 kts 180°
2026-05-05 16:02 35.87427 112.04432 36015 ft 519 kts 180°
2026-05-05 16:02 35.80154 112.05276 36017 ft 517 kts 180°
2026-05-05 16:02 35.76579 112.05918 35983 ft 526 kts 168°
2026-05-05 16:03 35.73253 112.07729 36006 ft 535 kts 148°
2026-05-05 16:03 35.70417 112.10810 36148 ft 540 kts 127°
2026-05-05 16:03 35.68509 112.14738 36480 ft 533 kts 107°
2026-05-05 16:03 35.67660 112.19126 36840 ft 519 kts 87°
2026-05-05 16:04 35.67896 112.23493 36999 ft 507 kts 72°
2026-05-05 16:04 35.69527 112.31883 36991 ft 501 kts 62°
2026-05-05 16:05 35.71589 112.40103 36987 ft 510 kts 70°
2026-05-05 16:05 35.72941 112.48651 36981 ft 512 kts 72°
2026-05-05 16:06 35.74176 112.57282 36978 ft 512 kts 72°
2026-05-05 16:06 35.75430 112.65913 36974 ft 512 kts 73°
2026-05-05 16:07 35.76687 112.74558 36978 ft 512 kts 73°
2026-05-05 16:07 35.77937 112.83124 36982 ft 512 kts 73°
2026-05-05 16:08 35.79188 112.91791 36980 ft 512 kts 72°
2026-05-05 16:08 35.80427 113.00426 36989 ft 510 kts 72°
2026-05-05 16:09 35.81664 113.09005 37000 ft 511 kts 73°
2026-05-05 16:09 35.82712 113.17654 36985 ft 520 kts 83°
2026-05-05 16:09 35.82298 113.22132 37009 ft 531 kts 100°
2026-05-05 16:10 35.80986 113.26345 37016 ft 539 kts 116°
2026-05-05 16:10 35.78812 113.30093 37018 ft 542 kts 134°
2026-05-05 16:10 35.75912 113.33065 37019 ft 540 kts 150°
2026-05-05 16:10 35.72567 113.35024 37033 ft 534 kts 163°
2026-05-05 16:11 35.69014 113.36500 37030 ft 535 kts 166°
2026-05-05 16:12 35.54924 113.42499 37016 ft 537 kts 163°
2026-05-05 16:13 35.37383 113.50282 36963 ft 537 kts 163°
2026-05-05 16:13 35.30323 113.53410 36918 ft 538 kts 163°
2026-05-05 16:14 35.16290 113.59636 36874 ft 537 kts 163°
2026-05-05 16:15 35.02248 113.65855 36869 ft 539 kts 163°
2026-05-05 16:16 34.88134 113.72122 36875 ft 538 kts 164°
2026-05-05 16:17 34.77401 113.75881 36885 ft 536 kts 169°
2026-05-05 16:18 34.66631 113.79417 36895 ft 537 kts 168°
2026-05-05 16:19 34.55836 113.82995 36902 ft 537 kts 168°
2026-05-05 16:19 34.45058 113.86469 36908 ft 537 kts 169°
2026-05-05 16:20 34.30609 113.90992 36912 ft 537 kts 168°
2026-05-05 16:22 34.12586 113.96665 36914 ft 538 kts 168°
2026-05-05 16:23 33.98093 114.01208 36899 ft 539 kts 168°
2026-05-05 16:23 33.87194 114.04614 36898 ft 539 kts 168°
2026-05-05 16:24 33.79937 114.06871 36899 ft 540 kts 168°
2026-05-05 16:25 33.69023 114.10265 36900 ft 539 kts 168°
2026-05-05 16:25 33.58163 114.13650 36900 ft 539 kts 168°
2026-05-05 16:26 33.43807 114.18635 36903 ft 543 kts 155°
2026-05-05 16:27 33.40543 114.20875 36908 ft 542 kts 144°
2026-05-05 16:27 33.37613 114.23749 36910 ft 540 kts 133°
2026-05-05 16:27 33.35165 114.27084 36914 ft 536 kts 122°
2026-05-05 16:27 33.33193 114.30839 36911 ft 530 kts 112°
2026-05-05 16:28 33.30568 114.38877 36920 ft 524 kts 102°
2026-05-05 16:28 33.28197 114.47028 36919 ft 524 kts 104°
2026-05-05 16:29 33.25677 114.55169 36922 ft 523 kts 104°
2026-05-05 16:29 33.22558 114.62959 36914 ft 535 kts 123°
2026-05-05 16:30 33.19997 114.66184 36915 ft 540 kts 140°
2026-05-05 16:30 33.16853 114.68645 36920 ft 540 kts 155°
2026-05-05 16:30 33.13347 114.70163 36928 ft 536 kts 170°
2026-05-05 16:30 33.09764 114.70686 36932 ft 529 kts 185°
2026-05-05 16:31 33.02451 114.69926 36925 ft 527 kts 191°
2026-05-05 16:31 32.95210 114.69024 36922 ft 528 kts 190°
2026-05-05 16:32 32.87991 114.68310 36917 ft 529 kts 189°
2026-05-05 16:32 32.80628 114.67619 36926 ft 529 kts 189°
2026-05-05 16:33 32.73327 114.66930 36927 ft 530 kts 189°
2026-05-05 16:33 32.65952 114.66236 36933 ft 529 kts 189°
2026-05-05 16:34 32.58641 114.65550 36942 ft 530 kts 189°
2026-05-05 16:34 32.51313 114.64864 36943 ft 529 kts 189°
2026-05-05 16:35 32.43967 114.64181 36936 ft 529 kts 189°
2026-05-05 16:35 32.36652 114.63493 36932 ft 530 kts 189°
2026-05-05 16:36 32.29323 114.62768 36932 ft 529 kts 189°
2026-05-05 16:36 32.21988 114.62044 36929 ft 530 kts 189°
2026-05-05 16:37 32.14687 114.61334 36932 ft 530 kts 189°
2026-05-05 16:37 32.07304 114.60618 36932 ft 530 kts 189°
2026-05-05 16:38 31.99993 114.59907 36943 ft 530 kts 189°
2026-05-05 16:38 31.92644 114.59199 36934 ft 529 kts 189°
2026-05-05 16:39 31.85314 114.58498 36934 ft 529 kts 189°
2026-05-05 16:39 31.77886 114.57787 36945 ft 539 kts 189°
2026-05-05 16:40 31.70456 114.57079 36940 ft 540 kts 189°
2026-05-05 16:40 31.63002 114.56367 36949 ft 539 kts 189°
2026-05-05 16:41 31.55560 114.55646 36950 ft 539 kts 189°
2026-05-05 16:41 31.48514 114.54967 36957 ft 540 kts 189°
2026-05-05 16:42 31.41383 114.54291 36957 ft 539 kts 189°
2026-05-05 16:42 31.35897 114.53773 36957 ft 539 kts 189°
2026-05-05 16:43 31.28783 114.53080 36955 ft 538 kts 191°
2026-05-05 16:43 31.22674 114.51483 36953 ft 522 kts 208°
2026-05-05 16:44 31.16707 114.48388 36966 ft 521 kts 212°
2026-05-05 16:44 31.11007 114.45232 36966 ft 519 kts 212°
2026-05-05 16:45 31.04800 114.41775 36968 ft 519 kts 212°
2026-05-05 16:45 30.98313 114.38179 36970 ft 520 kts 212°
2026-05-05 16:46 30.92451 114.34945 36975 ft 520 kts 211°
2026-05-05 16:46 30.86779 114.31923 36972 ft 521 kts 210°
2026-05-05 16:47 30.81227 114.29046 36972 ft 522 kts 210°
2026-05-05 16:47 30.74699 114.25527 36977 ft 520 kts 211°
2026-05-05 16:48 30.68177 114.21957 36973 ft 520 kts 212°
2026-05-05 16:48 30.61627 114.18404 36973 ft 520 kts 211°
2026-05-05 16:49 30.55035 114.14837 36969 ft 520 kts 211°
2026-05-05 16:49 30.48710 114.11407 36961 ft 518 kts 212°
2026-05-05 16:50 30.42399 114.07994 36963 ft 519 kts 211°
2026-05-05 16:50 30.36172 114.04642 36956 ft 519 kts 212°
2026-05-05 16:51 30.29769 114.01205 36954 ft 517 kts 211°
2026-05-05 16:51 30.23475 113.97823 36957 ft 519 kts 211°
2026-05-05 16:52 30.17593 113.94662 36958 ft 519 kts 212°
2026-05-05 16:52 30.11893 113.91611 36950 ft 517 kts 212°
2026-05-05 16:53 30.05503 113.88204 36954 ft 517 kts 212°
2026-05-05 16:53 29.99135 113.84811 36955 ft 518 kts 211°
2026-05-05 16:54 29.94469 113.82416 36954 ft 520 kts 208°
2026-05-05 16:54 29.87982 113.79858 36960 ft 526 kts 201°
2026-05-05 16:55 29.81497 113.78249 36961 ft 532 kts 194°
2026-05-05 16:55 29.74362 113.77446 36968 ft 536 kts 188°
2026-05-05 16:56 29.66860 113.76976 36981 ft 537 kts 188°
2026-05-05 16:56 29.59435 113.76495 36990 ft 536 kts 188°
2026-05-05 16:57 29.52960 113.76053 37014 ft 536 kts 188°
2026-05-05 16:57 29.46889 113.75630 37033 ft 536 kts 188°
2026-05-05 16:58 29.40676 113.75201 37028 ft 537 kts 188°
2026-05-05 16:58 29.33615 113.74719 37022 ft 537 kts 188°
2026-05-05 16:59 29.26686 113.74243 37011 ft 537 kts 188°
2026-05-05 16:59 29.20896 113.74063 37006 ft 541 kts 184°
2026-05-05 17:00 29.13477 113.74263 37008 ft 540 kts 182°
2026-05-05 17:00 29.06984 113.74472 37008 ft 541 kts 182°
2026-05-05 17:01 29.01076 113.74657 37017 ft 541 kts 183°
2026-05-05 17:01 28.93788 113.74873 37012 ft 540 kts 183°
2026-05-05 17:02 28.87878 113.75050 37016 ft 539 kts 182°
2026-05-05 17:02 28.80950 113.75259 37016 ft 540 kts 183°
2026-05-05 17:03 28.74051 113.75405 37020 ft 538 kts 185°
2026-05-05 17:03 28.66740 113.74972 37030 ft 535 kts 188°
2026-05-05 17:04 28.60469 113.74491 37031 ft 534 kts 189°
2026-05-05 17:04 28.52996 113.73927 37040 ft 534 kts 188°
2026-05-05 17:05 28.45630 113.73389 37036 ft 534 kts 188°
2026-05-05 17:05 28.38320 113.72863 37022 ft 533 kts 188°
2026-05-05 17:06 28.32034 113.72405 37012 ft 534 kts 188°
2026-05-05 17:06 28.26032 113.71972 37000 ft 533 kts 188°
2026-05-05 17:07 28.19073 113.71468 36992 ft 533 kts 188°
2026-05-05 17:07 28.11712 113.70921 36992 ft 532 kts 189°
2026-05-05 17:08 28.05399 113.70371 36997 ft 531 kts 189°
2026-05-05 17:08 27.98285 113.69715 36997 ft 531 kts 189°
2026-05-05 17:09 27.91204 113.69070 36997 ft 531 kts 189°
2026-05-05 17:09 27.84152 113.68445 36994 ft 530 kts 189°
2026-05-05 17:10 27.77635 113.67872 36993 ft 529 kts 189°
2026-05-05 17:10 27.70292 113.67228 36999 ft 527 kts 190°
2026-05-05 17:11 27.62949 113.66653 36998 ft 530 kts 187°
2026-05-05 17:11 27.55550 113.66464 36994 ft 529 kts 186°
2026-05-05 17:12 27.48364 113.66317 37007 ft 528 kts 186°
2026-05-05 17:12 27.41810 113.66177 37013 ft 528 kts 186°
2026-05-05 17:13 27.35309 113.66041 37006 ft 527 kts 186°
2026-05-05 17:13 27.28514 113.65894 37012 ft 527 kts 187°
2026-05-05 17:14 27.21128 113.65989 37014 ft 531 kts 181°
2026-05-05 17:14 27.13922 113.66965 37006 ft 536 kts 174°
2026-05-05 17:15 27.07723 113.68570 37020 ft 539 kts 169°
2026-05-05 17:15 27.00664 113.70706 37016 ft 538 kts 169°
2026-05-05 17:16 26.93544 113.72845 37023 ft 536 kts 169°
2026-05-05 17:16 26.87191 113.74723 37042 ft 537 kts 169°
2026-05-05 17:17 26.80821 113.76597 37049 ft 537 kts 169°
2026-05-05 17:17 26.74244 113.78532 37069 ft 538 kts 169°
2026-05-05 17:18 26.66957 113.80775 37072 ft 538 kts 168°
2026-05-05 17:18 26.59720 113.83066 37067 ft 537 kts 168°
2026-05-05 17:19 26.53611 113.84991 37083 ft 537 kts 168°
2026-05-05 17:19 26.46299 113.87225 37082 ft 535 kts 170°
2026-05-05 17:20 26.39235 113.89237 37111 ft 536 kts 170°
2026-05-05 17:20 26.32002 113.91303 37119 ft 536 kts 170°
2026-05-05 17:21 26.24910 113.93349 37139 ft 535 kts 170°
2026-05-05 17:22 26.15182 113.96162 37167 ft 535 kts 171°
2026-05-05 17:22 26.09065 113.97932 37175 ft 536 kts 171°
2026-05-05 17:23 26.01854 114.00013 37173 ft 536 kts 171°
2026-05-05 17:23 25.94646 114.02118 37163 ft 537 kts 170°
2026-05-05 17:24 25.87522 114.04230 37138 ft 536 kts 170°
2026-05-05 17:24 25.80246 114.06383 37134 ft 536 kts 170°
2026-05-05 17:25 25.73130 114.08490 37125 ft 536 kts 170°
2026-05-05 17:25 25.66728 114.10387 37119 ft 536 kts 170°
2026-05-05 17:26 25.60185 114.12324 37122 ft 535 kts 170°
2026-05-05 17:26 25.54173 114.14101 37122 ft 535 kts 170°
2026-05-05 17:27 25.47214 114.16157 37130 ft 535 kts 170°
2026-05-05 17:27 25.40803 114.18049 37125 ft 535 kts 170°
2026-05-05 17:28 25.33833 114.20110 37120 ft 535 kts 170°
2026-05-05 17:28 25.30551 114.21079 37254 ft 537 kts 170°
2026-05-05 17:28 25.26938 114.22149 37555 ft 536 kts 170°
2026-05-05 17:28 25.23601 114.23137 37879 ft 534 kts 171°
2026-05-05 17:29 25.20270 114.24117 38091 ft 534 kts 171°
2026-05-05 17:29 25.13526 114.25540 38099 ft 526 kts 180°
2026-05-05 17:30 25.06376 114.25878 38101 ft 516 kts 189°
2026-05-05 17:30 24.99335 114.25068 38103 ft 499 kts 198°
2026-05-05 17:31 24.93846 114.23869 38107 ft 495 kts 199°
2026-05-05 17:31 24.88586 114.22695 38107 ft 494 kts 199°
2026-05-05 17:32 24.82595 114.21384 38116 ft 494 kts 199°
2026-05-05 17:32 24.77335 114.20243 38126 ft 495 kts 199°
2026-05-05 17:33 24.70521 114.18768 38130 ft 495 kts 199°
2026-05-05 17:33 24.64184 114.17399 38125 ft 495 kts 199°
2026-05-05 17:34 24.57647 114.15989 38119 ft 494 kts 199°
2026-05-05 17:34 24.51671 114.14705 38114 ft 493 kts 199°
2026-05-05 17:35 24.45123 114.13294 38112 ft 493 kts 199°
2026-05-05 17:35 24.38882 114.11540 38109 ft 486 kts 206°
2026-05-05 17:36 24.32830 114.09051 38106 ft 478 kts 212°
2026-05-05 17:36 24.27736 114.06278 38096 ft 473 kts 217°
2026-05-05 17:37 24.22034 114.02405 38046 ft 467 kts 220°
2026-05-05 17:37 24.19421 114.00559 37410 ft 462 kts 220°
2026-05-05 17:37 24.16701 113.98646 36011 ft 469 kts 220°
2026-05-05 17:37 24.13979 113.96715 34402 ft 477 kts 221°
2026-05-05 17:38 24.11284 113.94604 33200 ft 472 kts 224°
2026-05-05 17:38 24.08875 113.92513 32758 ft 464 kts 226°
2026-05-05 17:38 24.07068 113.90803 32461 ft 464 kts 228°
2026-05-05 17:38 24.04951 113.88726 32010 ft 464 kts 229°
2026-05-05 17:39 24.02567 113.86381 31420 ft 464 kts 228°
2026-05-05 17:39 24.00167 113.84018 30831 ft 467 kts 228°
2026-05-05 17:39 23.98129 113.82014 30256 ft 470 kts 228°
2026-05-05 17:39 23.95690 113.79615 29564 ft 472 kts 227°
2026-05-05 17:40 23.93309 113.77276 28933 ft 473 kts 227°
2026-05-05 17:40 23.90828 113.74841 28255 ft 474 kts 227°
2026-05-05 17:40 23.88444 113.72507 27640 ft 474 kts 226°
2026-05-05 17:40 23.86050 113.70180 27180 ft 469 kts 226°
2026-05-05 17:41 23.83697 113.67894 26750 ft 465 kts 226°
2026-05-05 17:41 23.81284 113.65546 26331 ft 459 kts 226°
2026-05-05 17:41 23.79007 113.63324 25927 ft 455 kts 226°
2026-05-05 17:41 23.76663 113.61036 25514 ft 450 kts 226°
2026-05-05 17:42 23.74381 113.58807 25113 ft 446 kts 226°
2026-05-05 17:42 23.72085 113.56563 24712 ft 441 kts 226°
2026-05-05 17:42 23.70076 113.54602 24361 ft 437 kts 226°
2026-05-05 17:42 23.68137 113.52710 24020 ft 434 kts 226°
2026-05-05 17:43 23.65902 113.50530 23633 ft 430 kts 225°
2026-05-05 17:43 23.63683 113.48365 23256 ft 426 kts 225°
2026-05-05 17:43 23.61481 113.46220 22876 ft 423 kts 225°
2026-05-05 17:43 23.59392 113.44186 22507 ft 420 kts 225°
2026-05-05 17:44 23.57981 113.42812 22249 ft 418 kts 225°
2026-05-05 17:44 23.55804 113.40756 21844 ft 416 kts 221°
2026-05-05 17:44 23.53489 113.39007 21445 ft 416 kts 214°
2026-05-05 17:44 23.50877 113.37516 21024 ft 416 kts 207°
2026-05-05 17:45 23.48211 113.36389 20621 ft 416 kts 203°
2026-05-05 17:45 23.46243 113.35635 20332 ft 414 kts 202°
2026-05-05 17:45 23.43597 113.34642 19946 ft 412 kts 202°
2026-05-05 17:45 23.40960 113.33641 19557 ft 410 kts 202°
2026-05-05 17:46 23.38609 113.32745 19205 ft 408 kts 202°
2026-05-05 17:46 23.35728 113.31647 18771 ft 406 kts 202°
2026-05-05 17:46 23.33498 113.30799 18438 ft 405 kts 202°
2026-05-05 17:46 23.30437 113.29636 17971 ft 403 kts 202°
2026-05-05 17:47 23.28817 113.29022 17727 ft 402 kts 202°
2026-05-05 17:47 23.26719 113.28225 17413 ft 400 kts 202°
2026-05-05 17:47 23.23802 113.27119 16999 ft 398 kts 202°
2026-05-05 17:47 23.21177 113.26125 16609 ft 397 kts 201°
2026-05-05 17:48 23.18774 113.25216 16247 ft 395 kts 201°
2026-05-05 17:48 23.17216 113.24627 16011 ft 395 kts 201°
2026-05-05 17:48 23.14462 113.23588 15586 ft 393 kts 201°
2026-05-05 17:48 23.12654 113.22903 15300 ft 392 kts 201°
2026-05-05 17:49 23.10069 113.21924 14899 ft 390 kts 201°
2026-05-05 17:49 23.07554 113.21036 14495 ft 389 kts 195°
2026-05-05 17:49 23.05092 113.20881 14110 ft 391 kts 175°
2026-05-05 17:49 23.02684 113.21587 13741 ft 393 kts 157°
2026-05-05 17:50 23.00438 113.23227 13337 ft 394 kts 137°
2026-05-05 17:50 22.99067 113.25090 12999 ft 393 kts 121°
2026-05-05 17:50 22.98154 113.26965 12739 ft 391 kts 117°
2026-05-05 17:50 22.97032 113.29439 12377 ft 388 kts 117°
2026-05-05 17:51 22.95937 113.31855 12016 ft 386 kts 117°
2026-05-05 17:51 22.94774 113.34375 11637 ft 383 kts 117°
2026-05-05 17:51 22.93894 113.36253 11349 ft 381 kts 117°
2026-05-05 17:51 22.92783 113.38603 10996 ft 379 kts 118°
2026-05-05 17:52 22.91609 113.41067 10614 ft 376 kts 118°
2026-05-05 17:52 22.90422 113.43551 10351 ft 368 kts 118°
2026-05-05 17:52 22.89400 113.45603 10292 ft 355 kts 124°
2026-05-05 17:52 22.87822 113.47352 10194 ft 337 kts 151°
2026-05-05 17:53 22.86288 113.48041 10159 ft 322 kts 170°
2026-05-05 17:53 22.84171 113.48158 10116 ft 303 kts 188°
2026-05-05 17:53 22.82384 113.47968 10092 ft 291 kts 188°
2026-05-05 17:53 22.80395 113.47757 10060 ft 281 kts 188°
2026-05-05 17:54 22.78459 113.47576 9952 ft 279 kts 187°
2026-05-05 17:54 22.76522 113.47414 9642 ft 279 kts 187°
2026-05-05 17:54 22.74656 113.47267 9366 ft 278 kts 186°
2026-05-05 17:54 22.73454 113.47176 9190 ft 277 kts 186°
2026-05-05 17:55 22.71673 113.47041 8935 ft 275 kts 186°
2026-05-05 17:55 22.69952 113.46914 8689 ft 275 kts 186°
2026-05-05 17:55 22.68079 113.46776 8418 ft 273 kts 186°
2026-05-05 17:55 22.66324 113.46645 8160 ft 272 kts 186°
2026-05-05 17:56 22.64636 113.46524 7912 ft 270 kts 184°
2026-05-05 17:56 22.63073 113.46733 7626 ft 273 kts 159°
2026-05-05 17:56 22.61616 113.47810 7368 ft 275 kts 132°
2026-05-05 17:56 22.60737 113.49658 7188 ft 270 kts 101°
2026-05-05 17:57 22.60624 113.51346 7193 ft 258 kts 91°
2026-05-05 17:57 22.60620 113.53199 7180 ft 248 kts 90°
2026-05-05 17:57 22.60844 113.54946 6957 ft 250 kts 63°
2026-05-05 17:57 22.61922 113.56318 6690 ft 246 kts 29°
2026-05-05 17:58 22.63500 113.56832 6462 ft 235 kts
2026-05-05 17:58 22.65113 113.56848 6242 ft 227 kts 358°
2026-05-05 17:58 22.66661 113.56845 6014 ft 221 kts 358°
2026-05-05 17:58 22.68194 113.56860 5788 ft 215 kts 359°
2026-05-05 17:59 22.69667 113.56889 5569 ft 209 kts 360°
2026-05-05 17:59 22.71121 113.56928 5360 ft 206 kts
2026-05-05 17:59 22.72523 113.56970 5138 ft 199 kts
2026-05-05 17:59 22.73826 113.57285 4771 ft 190 kts 37°
2026-05-05 18:00 22.74501 113.58408 4341 ft 176 kts 83°
2026-05-05 18:00 22.74601 113.59701 3875 ft 172 kts 90°
2026-05-05 18:00 22.74653 113.60967 3434 ft 168 kts 89°
2026-05-05 18:00 22.74734 113.62193 3041 ft 163 kts 87°
2026-05-05 18:01 22.74843 113.63407 2842 ft 161 kts 86°
2026-05-05 18:01 22.74967 113.64616 2666 ft 160 kts 85°
2026-05-05 18:01 22.75097 113.65795 2635 ft 158 kts 85°
2026-05-05 18:01 22.75232 113.66978 2630 ft 158 kts 85°
2026-05-05 18:02 22.75370 113.68162 2614 ft 158 kts 85°
2026-05-05 18:02 22.75509 113.69343 2587 ft 158 kts 85°
2026-05-05 18:02 22.75646 113.70507 2493 ft 157 kts 85°
2026-05-05 18:02 22.75765 113.71689 2381 ft 157 kts 93°
2026-05-05 18:03 22.75399 113.72752 2285 ft 154 kts 135°
2026-05-05 18:03 22.74569 113.73450 2004 ft 149 kts 149°
2026-05-05 18:03 22.73630 113.73999 1786 ft 154 kts 151°
2026-05-05 18:03 22.72677 113.74515 1584 ft 155 kts 152°
2026-05-05 18:04 22.71712 113.75037 1380 ft 155 kts 152°
2026-05-05 18:04 22.70759 113.75559 1178 ft 154 kts 151°
2026-05-05 18:04 22.69802 113.76088 975 ft 154 kts 151°
2026-05-05 18:04 22.68832 113.76619 775 ft 154 kts 152°
2026-05-05 18:05 22.67862 113.77124 547 ft 154 kts 152°
2026-05-05 18:05 22.66913 113.77654 366 ft 154 kts 150°
2026-05-05 18:05 22.65951 113.78204 182 ft 154 kts 151°
2026-05-05 18:05 22.64999 113.78721 36 ft 146 kts 152°
2026-05-05 18:06 22.64257 113.79136 31 ft 88 kts 153°
2026-05-05 18:06 22.63976 113.79292 31 ft 47 kts 153°
2026-05-05 18:06 22.63697 113.79445 31 ft 23 kts 152°
2026-05-05 18:06 22.63573 113.79547 31 ft 16 kts 129°
2026-05-05 18:07 22.63503 113.79652 31 ft 18 kts 122°
2026-05-05 18:07 22.63430 113.79774 31 ft 19 kts 125°
2026-05-05 18:07 22.63322 113.79868 31 ft 20 kts 152°
2026-05-05 18:07 22.63231 113.79920 31 ft 13 kts 145°
2026-05-05 18:08 22.63208 113.80011 31 ft 13 kts 90°
2026-05-05 18:08 22.63194 113.80102 31 ft 11 kts 102°
2026-05-05 18:08 22.63183 113.80151 31 ft 4 kts 103°
2026-05-05 18:08 22.63179 113.80170 31 ft 0 kts 103°
2026-05-05 18:09 22.63180 113.80168 31 ft 0 kts 103°
2026-05-05 18:09 22.63179 113.80169 31 ft 0 kts 103°